Cloud_Cover
0 0 0 0 0 0 0 0 0 2 0 0 0 2 0 0 53 2 5 5 8 32 11 5 4 7 15 15 6 1 58 94 99
0 0 0 0 0 0 0 0 0 7 15 9 7 0 0 15 50 46 0 5 5 7 48 30 6 5 3 5 5 64 100 98 100
0 0 0 0 0 0 0 0 0 0 0 4 23 0 0 7 50 53 40 0 3 5 5 33 51 20 32 5 5 5 37 98 100
0 0 0 0 0 0 0 0 0 0 0 0 0 0 0 28 43 35 55 2 0 0 5 5 6 63 75 7 5 78 100 9 95
0 0 0 0 0 0 0 0 0 0 0 0 0 0 0 15 60 49 36 0 0 0 0 5 5 5 8 84 41 24 100 100 100
0 2 0 0 0 0 0 0 0 0 0 0 0 0 0 0 42 65 38 14 1 36 6 0 3 5 5 24 69 72 100 100 100
5 2 0 0 0 0 0 0 0 0 0 0 0 0 0 0 0 22 32 75 96 33 54 8 32 22 5 6 63 95 70 100 100
1 0 0 0 0 0 0 0 0 0 0 0 0 0 0 0 0 0 0 12 63 47 51 42 95 100 72 2 5 7 56 94 100
0 0 0 0 0 0 0 0 0 0 0 0 0 0 0 0 0 0 0 0 0 82 64 88 50 81 100 76 0 5 5 30 100
0 0 0 0 0 0 0 0 0 0 0 0 0 0 0 0 0 0 0 0 0 0 15 39 100 81 38 100 57 2 5 41 94
0 0 0 0 0 0 0 1 33 72 75 26 0 0 0 0 0 0 0 0 0 0 0 0 67 100 91 43 100 43 3 8 50
0 0 0 0 0 0 1 26 94 98 100 53 5 0 0 0 0 0 0 0 0 0 0 0 9 20 77 99 51 54 0 66 100
0 0 0 0 0 0 3 25 21 22 24 5 0 0 0 0 0 0 0 0 0 0 0 0 0 2 92 45 83 76 23 95 100
0 0 0 0 0 1 4 5 8 0 2 5 3 0 0 0 0 0 0 0 0 0 0 2 5 88 100 90 98 100 100 100 100
0 0 0 0 2 5 0 0 0 4 29 14 0 0 0 0 0 0 0 0 0 3 3 3 53 42 37 100 100 100 100 100 100
0 0 0 0 0 2 0 0 0 3 54 99 10 0 0 0 0 0 0 43 3 5 5 4 85 23 56 100 90 100 100 100 100
0 0 0 0 5 0 4 0 10 57 13 70 99 15 1 5 4 27 93 76 19 98 97 99 97 91 95 100 100 100 100 100 100
0 0 0 0 5 1 4 2 5 29 0 11 100 100 100 17 5 19 60 100 97 99 100 100 100 100 100 100 98 100 100 100 100
0 0 0 0 5 5 2 2 4 0 4 0 2 77 100 100 92 26 40 99 100 100 100 81 100 100 100 100 100 92 100 100 100
0 0 0 5 5 5 4 5 3 0 0 0 0 0 46 100 100 100 56 12 60 97 100 100 100 100 100 100 100 100 100 100 100